[[{"header":{"parameterUnit":"m.s-1","parameterCategory":2,"la1":30.2991,"la2":30.254,"lo1":-89.0895,"lo2":-89.0444,"dy":0.0017,"dx":0.0017,"nx":28,"ny":28,"refTime":"2024-08-31T09:00:00:Z","depth":"0","parameterNumber":2,"parameterNumberName":"U-component_of_CURRENTS"},"data":[0,0,0,0,0,0,0,0,0,0,0,0,0,0,0,0,0,0,0,0,0,0,0,0,0,0,0,0,0,0,0,0,0,0,0,0,0,0,0,0,0,0,0,0,0,0,0,0,0,0,0,0,0,0,0,0,0,0,-0.2229,-0.2229,0,-0.2261,-0.2261,-0.2262,-0.2222,-0.2221,-0.2219,-0.2218,-0.2201,-0.2202,-0.2202,0,0,0,0,0,0,0,0,0,0,0,0,0,-0.2132,-0.2133,-0.2229,-0.2229,-0.223,-0.2261,-0.2262,-0.2262,-0.2222,-0.2221,-0.2219,-0.2218,-0.2201,-0.2202,-0.2202,0,0,0,0,0,0,0,0,0,0,0,0,0,-0.2168,-0.2134,-0.2229,-0.2216,-0.2215,-0.2261,-0.2262,-0.2262,-0.2222,-0.2221,-0.2219,-0.2217,-0.22,-0.2201,-0.2202,-0.2246,0,0,-0.2206,-0.2206,0,0,0,0,0,0,0,0,-0.2166,-0.2171,-0.2217,-0.2217,-0.2216,-0.2238,-0.2221,-0.2255,-0.2223,-0.2217,-0.2218,-0.2216,-0.2212,-0.2212,-0.2219,-0.2245,-0.2245,-0.2206,-0.2206,-0.2207,-0.2207,0,0,0,0,0,0,0,-0.2163,-0.2169,-0.2239,-0.2218,-0.2218,-0.2208,-0.2211,-0.2227,-0.2222,-0.2217,-0.2215,-0.2223,-0.221,-0.2218,-0.2218,-0.2244,-0.2206,-0.2207,-0.2207,-0.2208,-0.227,-0.2271,0,0,0,0,0,0,-0.2167,-0.2167,-0.2238,-0.224,-0.2189,-0.2212,-0.2215,-0.2231,-0.2222,-0.2221,-0.2225,-0.2222,-0.2217,-0.2217,-0.2218,-0.2244,-0.2207,-0.2208,-0.2208,-0.2269,-0.227,-0.2271,0,0,0,0,0,0,-0.2165,-0.2173,-0.2237,-0.2206,-0.2213,-0.2216,-0.2234,-0.2232,-0.2232,-0.2229,-0.2225,-0.2225,-0.2216,-0.2216,-0.2228,-0.2244,-0.2208,-0.2209,-0.2267,-0.2269,-0.227,-0.2313,0,0,0,0,0,0,-0.2162,-0.2172,-0.2183,-0.2206,-0.2215,-0.2264,-0.2236,-0.2234,-0.2242,-0.2237,-0.2229,-0.2225,-0.2214,-0.2227,-0.2229,-0.2244,-0.221,-0.2266,-0.2268,-0.227,-0.231,-0.2315,-0.232,0,0,0,0,0,-0.2158,-0.2182,-0.2183,-0.2192,-0.2231,-0.2265,-0.2269,-0.2262,-0.2244,-0.2252,-0.2243,-0.2225,-0.224,-0.2229,-0.2231,-0.2247,-0.2265,-0.2267,-0.227,-0.2308,-0.2314,-0.232,0,0,0,0,0,0,-0.2147,-0.2182,-0.2183,-0.2216,-0.2238,-0.2259,-0.2269,-0.2266,-0.2269,-0.2259,-0.2244,-0.2242,-0.2258,-0.2252,-0.2239,-0.227,-0.2248,-0.2251,-0.2276,-0.2282,-0.2287,-0.2283,-0.2211,0,0,0,0,0,-0.2152,-0.2174,-0.2207,-0.2231,-0.2245,-0.2257,-0.2268,-0.2269,-0.2277,-0.2275,-0.227,-0.2266,-0.2274,-0.2275,-0.2281,-0.2305,-0.2291,-0.2315,-0.232,-0.2325,-0.2323,-0.2324,-0.2329,-0.2278,-0.2278,-0.2278,0,0,-0.2152,-0.2176,-0.2187,-0.2229,-0.2243,-0.2269,-0.2258,-0.2281,-0.2296,-0.2275,-0.2287,-0.2287,-0.2285,-0.2306,-0.2312,-0.2299,-0.2332,-0.2328,-0.2331,-0.2327,-0.2327,-0.2332,-0.2336,-0.228,-0.228,-0.2279,0,0,-0.2162,-0.2188,-0.2206,-0.2231,-0.2262,-0.2278,-0.2286,-0.2311,-0.2313,-0.2336,-0.2321,-0.2331,-0.2342,-0.2346,-0.2348,-0.2389,-0.236,-0.2388,-0.2409,-0.2411,-0.2415,-0.2418,-0.2404,-0.2406,-0.2389,-0.2389,-0.2389,0,-0.2156,-0.219,-0.2216,-0.2243,-0.2263,-0.2282,-0.2306,-0.2325,-0.2346,-0.2355,-0.234,-0.2363,-0.2362,-0.2388,-0.2397,-0.2401,-0.2387,-0.2386,-0.2417,-0.242,-0.2422,-0.2408,-0.2409,-0.2391,-0.2391,-0.239,-0.239,0,-0.2179,-0.2206,-0.2223,-0.2261,-0.2289,-0.2317,-0.2351,-0.2372,-0.2377,-0.2389,-0.2413,-0.2417,-0.2424,-0.2433,-0.2426,-0.245,-0.243,-0.2424,-0.2399,-0.243,-0.2412,-0.2413,-0.2394,-0.2393,-0.2393,-0.2392,0,0,-0.2153,-0.2223,-0.2225,-0.2244,-0.2301,-0.2324,-0.2365,-0.2405,-0.2421,-0.2441,-0.2457,-0.2482,-0.2476,-0.2479,-0.2477,-0.2482,-0.2492,-0.246,-0.2458,-0.2442,-0.248,-0.2409,-0.2402,-0.2487,-0.2487,-0.2488,-0.246,0,-0.2155,-0.2201,-0.2241,-0.2281,-0.2306,-0.2351,-0.2387,-0.2425,-0.2449,-0.2472,-0.2487,-0.2499,-0.2497,-0.2496,-0.2505,-0.2497,-0.2495,-0.2499,-0.2456,-0.2455,-0.2384,-0.2401,-0.2298,-0.2259,-0.246,-0.246,-0.246,0,-0.215,-0.2187,-0.2227,-0.229,-0.2305,-0.2333,-0.2389,-0.2424,-0.2473,-0.2489,-0.2512,-0.2518,-0.2539,-0.2523,-0.2527,-0.2526,-0.2504,-0.2494,-0.2493,-0.241,-0.2384,-0.2262,-0.2252,-0.224,-0.2461,-0.2461,-0.2461,0,-0.2101,-0.2169,-0.2198,-0.2221,-0.2301,-0.2323,-0.2361,-0.242,-0.2449,-0.2491,-0.2506,-0.2534,-0.2537,-0.2532,-0.2514,-0.2519,-0.2501,-0.2505,-0.242,-0.2414,-0.2309,-0.2293,-0.2276,-0.2496,-0.2496,-0.2496,-0.2496,0,-0.2081,-0.2099,-0.2174,-0.2192,-0.2224,-0.229,-0.2324,-0.2368,-0.2427,-0.2449,-0.25,-0.2511,-0.2537,-0.2532,-0.2516,-0.2462,-0.2501,-0.242,-0.2403,-0.232,-0.2306,-0.2276,-0.2298,-0.2495,-0.2495,-0.2495,-0.2496,0,-0.2014,-0.2068,-0.2099,-0.2179,-0.22,-0.2217,-0.2294,-0.2315,-0.2386,-0.2414,-0.2425,-0.249,-0.2479,-0.2488,-0.2474,-0.245,-0.2367,-0.2381,-0.2273,-0.2244,-0.2151,-0.218,-0.2123,-0.2064,-0.2289,-0.2287,-0.2285,0,-0.1981,-0.1992,-0.2065,-0.2075,-0.2106,-0.2148,-0.2174,-0.2269,-0.2297,-0.2388,-0.2388,-0.2413,-0.2402,-0.2368,-0.2321,-0.227,-0.2274,-0.2154,-0.2148,-0.2126,-0.2147,-0.2157,-0.2113,-0.2028,-0.2024,-0.2021,-0.2019,0,-0.1907,-0.1931,-0.1958,-0.1986,-0.201,-0.2048,-0.2095,-0.2121,-0.2223,-0.2256,-0.2291,-0.2296,-0.2272,-0.2188,-0.2131,-0.2086,-0.2096,-0.2091,-0.21,-0.1964,-0.1942,-0.1882,-0.2068,-0.1993,-0.1995,-0.1997,-0.1999,-0.2,-0.1827,-0.1825,-0.1856,-0.1873,-0.1905,-0.1927,-0.1914,-0.1979,-0.2013,-0.2036,-0.2125,-0.21,-0.2084,-0.1988,-0.1949,-0.1844,-0.1894,-0.1799,-0.1841,-0.1858,-0.178,-0.1899,-0.1788,-0.1789,-0.179,-0.1791,-0.1792,0,-0.1712,-0.1724,-0.1736,-0.1755,-0.1743,-0.1802,-0.1836,-0.1802,-0.1791,-0.1851,-0.1855,-0.186,-0.1782,-0.1782,-0.1703,-0.1632,-0.1593,-0.1596,-0.1599,-0.157,-0.1691,-0.1657,-0.1473,-0.1473,-0.1473,-0.1473,-0.1474,-0.1474,-0.1645,-0.1617,-0.1634,-0.1583,-0.1591,-0.1533,-0.1522,-0.1498,-0.1514,-0.1491,-0.1516,-0.158,-0.1614,-0.1719,-0.1628,-0.1547,-0.1519,-0.1451,-0.1492,-0.1604,-0.1627,-0.1649,-0.1622,-0.1434,-0.1434,-0.1294,-0.1293,-0.1293]},{"header":{"parameterUnit":"m.s-1","parameterCategory":2,"la1":30.2991,"la2":30.254,"lo1":-89.0895,"lo2":-89.0444,"dy":0.0017,"dx":0.0017,"nx":28,"ny":28,"refTime":"2024-08-31T09:00:00:Z","depth":"0","parameterNumber":3,"parameterNumberName":"V-component_of_CURRENTS"},"data":[0,0,0,0,0,0,0,0,0,0,0,0,0,0,0,0,0,0,0,0,0,0,0,0,0,0,0,0,0,0,0,0,0,0,0,0,0,0,0,0,0,0,0,0,0,0,0,0,0,0,0,0,0,0,0,0,0,0,-0.0218,-0.0218,0,-0.0133,-0.0132,-0.0131,-0.0073,-0.0072,-0.0072,-0.0072,0.0046,0.0049,0.0052,0,0,0,0,0,0,0,0,0,0,0,0,0,-0.0285,-0.0284,-0.0219,-0.0218,-0.0217,-0.0134,-0.0132,-0.0131,-0.0073,-0.0072,-0.0072,-0.0071,0.0045,0.0049,0.0052,0,0,0,0,0,0,0,0,0,0,0,0,0,-0.0233,-0.0284,-0.0219,-0.0179,-0.0174,-0.0134,-0.0132,-0.0131,-0.0073,-0.0072,-0.0072,-0.0071,0.0044,0.0048,0.0053,0.0069,0,0,0.0066,0.0067,0,0,0,0,0,0,0,0,-0.0236,-0.023,-0.0185,-0.0181,-0.0176,-0.0114,-0.0113,-0.0063,-0.0073,-0.011,-0.0072,-0.0071,-0.0006,0.0003,0.0019,0.0075,0.008,0.0066,0.0069,0.007,0.0072,0,0,0,0,0,0,0,-0.0239,-0.0233,-0.0183,-0.0184,-0.0179,-0.0149,-0.0142,-0.0103,-0.006,-0.0106,-0.0102,-0.0095,-0.0003,0.0015,0.0022,0.0082,0.0066,0.007,0.0072,0.0074,0.0172,0.0172,0,0,0,0,0,0,-0.0256,-0.0237,-0.0186,-0.0181,-0.0207,-0.0149,-0.014,-0.0134,-0.0061,-0.005,-0.0096,-0.0093,0.0007,0.0017,0.0027,0.0049,0.007,0.0074,0.0077,0.0172,0.0172,0.0172,0,0,0,0,0,0,-0.0257,-0.0252,-0.019,-0.0208,-0.0198,-0.0149,-0.0141,-0.0132,-0.0115,-0.0053,-0.0041,-0.0088,0.0008,0.0021,0.006,0.0054,0.0076,0.008,0.0172,0.0172,0.0172,0.0095,0,0,0,0,0,0,-0.026,-0.0253,-0.0257,-0.0209,-0.0198,-0.0173,-0.0142,-0.0131,-0.0112,-0.0107,-0.0043,-0.0031,0.0009,0.0054,0.0064,0.0061,0.0083,0.0172,0.0172,0.0172,0.0098,0.0093,0.0088,0,0,0,0,0,-0.0262,-0.0271,-0.0257,-0.0251,-0.0203,-0.0174,-0.0165,-0.0127,-0.0112,-0.0109,-0.0063,-0.0033,0.0062,0.0057,0.007,0.0067,0.0172,0.0172,0.0172,0.01,0.0094,0.0089,0,0,0,0,0,0,-0.03,-0.0264,-0.0249,-0.0245,-0.0215,-0.0164,-0.0159,-0.0133,-0.0095,-0.009,-0.0032,-0.0017,0.0014,0.0053,0.0046,0.0097,0.0122,0.0124,0.0063,0.0057,0.0053,0.004,0.0087,0,0,0,0,0,-0.0312,-0.031,-0.0268,-0.0266,-0.0254,-0.0209,-0.0193,-0.0167,-0.0127,-0.0109,-0.0064,-0.0016,0.0025,0.0049,0.0091,0.0118,0.0161,0.0126,0.0121,0.0117,0.0116,0.0174,0.0174,0.0172,0.0172,0.0172,0,0,-0.0326,-0.0307,-0.0305,-0.0275,-0.0248,-0.0239,-0.0198,-0.0179,-0.0169,-0.0103,-0.0077,-0.0032,0.0029,0.0059,0.0077,0.009,0.014,0.0117,0.0113,0.0115,0.0174,0.0174,0.0174,0.0172,0.0172,0.0172,0,0,-0.0358,-0.0338,-0.0346,-0.0327,-0.0295,-0.0266,-0.0265,-0.0217,-0.0194,-0.0164,-0.0114,-0.0073,-0.0012,0.0031,0.0061,0.0057,0.0111,0.0069,0.0037,0.0093,0.0093,0.0094,0.0143,0.0149,0.0068,0.0068,0.0068,0,-0.0378,-0.0381,-0.0344,-0.0347,-0.0336,-0.0284,-0.0288,-0.0258,-0.0204,-0.0184,-0.0167,-0.007,-0.0025,0.0023,0.0019,0.0045,0.0084,0.0049,0.0085,0.0087,0.009,0.014,0.0147,0.0064,0.0065,0.0065,0.0066,0,-0.0412,-0.0414,-0.0418,-0.0404,-0.0387,-0.0384,-0.0338,-0.0317,-0.0284,-0.0246,-0.0196,-0.0128,-0.0069,-0.0051,-0.0018,0.0021,0.0046,0.0069,0.0094,0.0085,0.0139,0.0148,0.0059,0.006,0.0062,0.0062,0,0,-0.0455,-0.0446,-0.0447,-0.0453,-0.0419,-0.0409,-0.0392,-0.0356,-0.034,-0.0285,-0.0254,-0.0187,-0.0143,-0.0106,-0.0054,-0.0007,0.0037,0.0029,0.0034,0.0069,0.0157,0.0188,0.0202,0.0065,0.0066,0.0067,0.0185,0,-0.0493,-0.052,-0.0497,-0.0515,-0.0524,-0.0475,-0.0462,-0.0421,-0.0374,-0.0329,-0.0253,-0.0204,-0.0165,-0.0135,-0.0084,0.0013,0.0059,0.0002,0.017,0.0175,0.0196,0.0213,0.0232,0.034,0.0194,0.0196,0.0197,0,-0.053,-0.0546,-0.0576,-0.0573,-0.057,-0.0569,-0.0534,-0.0515,-0.0438,-0.0398,-0.0332,-0.0263,-0.0181,-0.015,0.0003,-0.0035,0.0049,0.012,0.0127,0.0191,0.0223,0.0329,0.0363,0.0485,0.0212,0.0211,0.021,0,-0.0581,-0.0596,-0.0626,-0.0626,-0.0612,-0.0612,-0.0599,-0.0538,-0.0517,-0.0436,-0.0404,-0.0295,-0.023,-0.0116,0.003,0.002,0.0201,0.0211,0.0318,0.0321,0.0388,0.0395,0.0554,0.0312,0.0311,0.0311,0.0311,0,-0.063,-0.0652,-0.0655,-0.0673,-0.0701,-0.0667,-0.067,-0.0636,-0.0576,-0.0546,-0.0445,-0.0386,-0.0219,-0.0092,0.0028,0.0207,0.0205,0.032,0.0358,0.0362,0.0365,0.0516,0.0562,0.0315,0.0315,0.0314,0.0313,0,-0.0677,-0.0681,-0.0718,-0.0725,-0.0728,-0.0747,-0.0732,-0.0725,-0.0662,-0.0616,-0.0591,-0.0441,-0.0269,-0.0098,0.0109,0.0211,0.0454,0.0433,0.0422,0.0457,0.0657,0.0696,0.0893,0.0957,0.057,0.0572,0.0573,0,-0.0704,-0.0729,-0.0763,-0.079,-0.0797,-0.0815,-0.0823,-0.0777,-0.0759,-0.0644,-0.062,-0.0446,-0.0305,0.001,0.0227,0.0456,0.0539,0.0593,0.0575,0.0681,0.0755,0.0776,0.0817,0.0637,0.0639,0.064,0.0641,0,-0.0754,-0.0763,-0.0794,-0.0851,-0.088,-0.0904,-0.0906,-0.0903,-0.0831,-0.0765,-0.0637,-0.0512,-0.02,0.0091,0.0381,0.0506,0.0681,0.0628,0.0753,0.0834,0.0856,0.0931,0.0538,0.0654,0.0652,0.0651,0.0651,0.065,-0.0783,-0.082,-0.0858,-0.0907,-0.0947,-0.0974,-0.0978,-0.0948,-0.0903,-0.0776,-0.0658,-0.044,-0.003,0.0397,0.0552,0.0854,0.0813,0.0929,0.0973,0.0989,0.104,0.0667,0.0812,0.0811,0.0811,0.0811,0.081,0,-0.081,-0.085,-0.0907,-0.0965,-0.1008,-0.101,-0.1013,-0.098,-0.0908,-0.0765,-0.0607,-0.0165,0.0236,0.0596,0.1037,0.1194,0.1219,0.1258,0.13,0.1328,0.1024,0.1015,0.1191,0.1191,0.1191,0.1191,0.1191,0.1191,-0.0826,-0.0883,-0.0914,-0.0994,-0.103,-0.1048,-0.1042,-0.0967,-0.0854,-0.0588,-0.034,-0.0138,0.036,0.1099,0.1497,0.1518,0.1647,0.1626,0.1701,0.1494,0.1466,0.144,0.1444,0.1707,0.1708,0.1984,0.1987,0.1989]}],[{"header":{"parameterUnit":"m.s-1","parameterCategory":2,"la1":30.2991,"la2":30.254,"lo1":-89.0895,"lo2":-89.0444,"dy":0.0017,"dx":0.0017,"nx":28,"ny":28,"refTime":"2024-08-31T09:00:00:Z","depth":"2","parameterNumber":2,"parameterNumberName":"U-component_of_CURRENTS"},"data":[0,0,0,0,0,0,0,0,0,0,0,0,0,0,0,0,0,0,0,0,0,0,0,0,0,0,0,0,0,0,0,0,0,0,0,0,0,0,0,0,0,0,0,0,0,0,0,0,0,0,0,0,0,0,0,0,0,0,-0.193,-0.193,0,-0.196,-0.196,-0.196,-0.193,-0.1929,-0.1928,-0.1927,-0.1915,-0.1915,-0.1916,0,0,0,0,0,0,0,0,0,0,0,0,0,-0.1849,-0.185,-0.193,-0.193,-0.1931,-0.196,-0.196,-0.196,-0.193,-0.1929,-0.1928,-0.1927,-0.1915,-0.1915,-0.1916,0,0,0,0,0,0,0,0,0,0,0,0,0,-0.188,-0.1851,-0.193,-0.1921,-0.1921,-0.196,-0.196,-0.196,-0.193,-0.1929,-0.1928,-0.1926,-0.1914,-0.1915,-0.1916,-0.1951,0,0,-0.1919,-0.1919,0,0,0,0,0,0,0,0,-0.1878,-0.1883,-0.1922,-0.1922,-0.1921,-0.1941,-0.1927,-0.1956,-0.1931,-0.1924,-0.1927,-0.1925,-0.1922,-0.1923,-0.1929,-0.195,-0.195,-0.1919,-0.1919,-0.192,-0.192,0,0,0,0,0,0,0,-0.1876,-0.1881,-0.1939,-0.1923,-0.1922,-0.1917,-0.1919,-0.1932,-0.1929,-0.1925,-0.1923,-0.1931,-0.1921,-0.1928,-0.1928,-0.1949,-0.1919,-0.192,-0.192,-0.1921,-0.1977,-0.1978,0,0,0,0,0,0,-0.1879,-0.188,-0.1938,-0.194,-0.1898,-0.1919,-0.1922,-0.1935,-0.193,-0.1928,-0.1932,-0.1929,-0.1927,-0.1927,-0.1928,-0.1955,-0.192,-0.1921,-0.1921,-0.1976,-0.1977,-0.1978,0,0,0,0,0,0,-0.1877,-0.1884,-0.1937,-0.1912,-0.1918,-0.1923,-0.1937,-0.1936,-0.194,-0.1936,-0.1933,-0.1936,-0.1926,-0.1926,-0.194,-0.1955,-0.1921,-0.1922,-0.1975,-0.1976,-0.1978,-0.2019,0,0,0,0,0,0,-0.1875,-0.1883,-0.1893,-0.1912,-0.192,-0.1962,-0.1939,-0.1938,-0.1948,-0.1944,-0.1938,-0.1936,-0.1925,-0.1939,-0.1941,-0.1955,-0.1923,-0.1973,-0.1975,-0.1977,-0.2016,-0.2021,-0.2026,0,0,0,0,0,-0.1872,-0.1892,-0.1893,-0.19,-0.1933,-0.1963,-0.1967,-0.1963,-0.1949,-0.1958,-0.1952,-0.1936,-0.1951,-0.194,-0.1942,-0.1958,-0.1973,-0.1975,-0.1977,-0.2014,-0.202,-0.2026,0,0,0,0,0,0,-0.1864,-0.1892,-0.1893,-0.1921,-0.1942,-0.1959,-0.1969,-0.1969,-0.1973,-0.1967,-0.1953,-0.1952,-0.1968,-0.1962,-0.195,-0.1979,-0.1958,-0.196,-0.1985,-0.1991,-0.1996,-0.1991,-0.1923,0,0,0,0,0,-0.1869,-0.1887,-0.1914,-0.1935,-0.1948,-0.196,-0.1971,-0.1972,-0.1981,-0.1981,-0.1978,-0.1976,-0.1982,-0.1984,-0.1989,-0.2011,-0.1997,-0.2021,-0.2026,-0.203,-0.2028,-0.2027,-0.2031,-0.1985,-0.1985,-0.1985,0,0,-0.187,-0.1889,-0.1898,-0.1934,-0.1948,-0.1971,-0.1962,-0.1985,-0.1999,-0.1981,-0.1996,-0.1996,-0.1993,-0.2012,-0.2019,-0.2006,-0.2037,-0.2033,-0.2036,-0.2032,-0.203,-0.2034,-0.2038,-0.1987,-0.1986,-0.1986,0,0,-0.188,-0.1902,-0.1917,-0.194,-0.1969,-0.1982,-0.1991,-0.2014,-0.2018,-0.2042,-0.2028,-0.2038,-0.205,-0.205,-0.2051,-0.209,-0.2064,-0.2091,-0.2111,-0.2111,-0.2114,-0.2117,-0.2106,-0.2108,-0.2092,-0.2092,-0.2092,0,-0.1877,-0.1905,-0.1927,-0.1951,-0.197,-0.1988,-0.201,-0.2028,-0.205,-0.2058,-0.2048,-0.2069,-0.2068,-0.2088,-0.2098,-0.21,-0.209,-0.2089,-0.2116,-0.2119,-0.2121,-0.2109,-0.211,-0.2094,-0.2094,-0.2093,-0.2093,0,-0.1898,-0.1922,-0.1937,-0.197,-0.1996,-0.2022,-0.2052,-0.2073,-0.2081,-0.2093,-0.2116,-0.2119,-0.2126,-0.2133,-0.2127,-0.2147,-0.2131,-0.2123,-0.2099,-0.2128,-0.2114,-0.2114,-0.2097,-0.2096,-0.2096,-0.2095,0,0,-0.1877,-0.1938,-0.194,-0.1958,-0.2009,-0.2029,-0.2068,-0.2103,-0.212,-0.2141,-0.2158,-0.2178,-0.2174,-0.2175,-0.2173,-0.2175,-0.2185,-0.2157,-0.2156,-0.2142,-0.2175,-0.2105,-0.2099,-0.218,-0.218,-0.2181,-0.2159,0,-0.188,-0.1922,-0.1956,-0.1993,-0.2017,-0.2056,-0.209,-0.2125,-0.2148,-0.2171,-0.2183,-0.2197,-0.2192,-0.2194,-0.22,-0.219,-0.2188,-0.2191,-0.2152,-0.2151,-0.2082,-0.2098,-0.1943,-0.1905,-0.2159,-0.2159,-0.2159,0,-0.1877,-0.191,-0.1948,-0.2003,-0.2017,-0.2045,-0.2096,-0.2129,-0.2174,-0.2191,-0.2212,-0.2218,-0.2234,-0.222,-0.2218,-0.2219,-0.2199,-0.2188,-0.2187,-0.2106,-0.2082,-0.1917,-0.1896,-0.216,-0.2159,-0.2159,-0.2159,0,-0.1835,-0.1896,-0.1924,-0.1944,-0.2016,-0.2039,-0.2074,-0.2128,-0.2154,-0.2196,-0.2213,-0.2235,-0.2239,-0.2231,-0.2211,-0.2215,-0.2195,-0.2197,-0.2115,-0.211,-0.1961,-0.1941,-0.2186,-0.2186,-0.2186,-0.2186,-0.2187,0,-0.1819,-0.1838,-0.1905,-0.1922,-0.1953,-0.2013,-0.2047,-0.2087,-0.2143,-0.2161,-0.221,-0.2219,-0.2241,-0.2234,-0.2215,-0.216,-0.2196,-0.2115,-0.2099,-0.1971,-0.1954,-0.2161,-0.2158,-0.2186,-0.2186,-0.2186,-0.2186,0,-0.1763,-0.1811,-0.1841,-0.1914,-0.1933,-0.1951,-0.2022,-0.204,-0.2109,-0.2134,-0.2146,-0.2205,-0.2193,-0.2199,-0.2181,-0.215,-0.2114,-0.2081,-0.1924,-0.189,-0.2031,-0.2031,-0.1997,-0.1994,-0.1992,-0.199,-0.1989,0,-0.1736,-0.1747,-0.1812,-0.1821,-0.1852,-0.1892,-0.1914,-0.2002,-0.2025,-0.2109,-0.2107,-0.2133,-0.2115,-0.2078,-0.2027,-0.1975,-0.204,-0.1807,-0.1789,-0.2023,-0.2011,-0.2015,-0.2018,-0.161,-0.1605,-0.1602,-0.1599,0,-0.1674,-0.1696,-0.1719,-0.1743,-0.1765,-0.1795,-0.1838,-0.1859,-0.195,-0.1978,-0.2004,-0.2004,-0.198,-0.1862,-0.1807,-0.1755,-0.1808,-0.173,-0.2004,-0.1685,-0.1657,-0.1646,-0.1662,-0.1565,-0.1569,-0.1571,-0.1573,-0.1574,-0.1604,-0.1601,-0.1625,-0.1638,-0.1666,-0.168,-0.1663,-0.1717,-0.1739,-0.175,-0.1833,-0.178,-0.1777,-0.1613,-0.1537,-0.148,-0.16,-0.1533,-0.1545,-0.156,-0.1523,-0.1492,-0.1363,-0.1365,-0.1366,-0.1368,-0.1369,0,-0.1503,-0.1509,-0.1516,-0.1526,-0.1509,-0.1565,-0.1586,-0.1545,-0.152,-0.1557,-0.1551,-0.1407,-0.1337,-0.1341,-0.1205,-0.1184,-0.1176,-0.1135,-0.1127,-0.1159,-0.1189,-0.1133,-0.0869,-0.0868,-0.0867,-0.0865,0,0,-0.1445,-0.1412,-0.1421,-0.1361,-0.1365,-0.1301,-0.1284,-0.1245,-0.1241,-0.1176,-0.1151,-0.1249,-0.1295,-0.1086,-0.1035,-0.0933,-0.1034,-0.0883,-0.128,-0.1302,-0.133,-0.141,-0.1359,0,0,0,0,0]},{"header":{"parameterUnit":"m.s-1","parameterCategory":2,"la1":30.2991,"la2":30.254,"lo1":-89.0895,"lo2":-89.0444,"dy":0.0017,"dx":0.0017,"nx":28,"ny":28,"refTime":"2024-08-31T09:00:00:Z","depth":"2","parameterNumber":3,"parameterNumberName":"V-component_of_CURRENTS"},"data":[0,0,0,0,0,0,0,0,0,0,0,0,0,0,0,0,0,0,0,0,0,0,0,0,0,0,0,0,0,0,0,0,0,0,0,0,0,0,0,0,0,0,0,0,0,0,0,0,0,0,0,0,0,0,0,0,0,0,-0.0169,-0.0169,0,-0.0093,-0.0092,-0.0091,-0.0038,-0.0038,-0.0038,-0.0037,0.007,0.0072,0.0075,0,0,0,0,0,0,0,0,0,0,0,0,0,-0.0224,-0.0223,-0.017,-0.0169,-0.0168,-0.0093,-0.0092,-0.0091,-0.0038,-0.0038,-0.0038,-0.0037,0.0069,0.0072,0.0075,0,0,0,0,0,0,0,0,0,0,0,0,0,-0.0178,-0.0223,-0.017,-0.0134,-0.013,-0.0094,-0.0092,-0.0091,-0.0038,-0.0038,-0.0038,-0.0037,0.0068,0.0072,0.0076,0.0091,0,0,0.0088,0.0089,0,0,0,0,0,0,0,0,-0.0181,-0.0176,-0.014,-0.0136,-0.0132,-0.0076,-0.0072,-0.0029,-0.0039,-0.0072,-0.0037,-0.0037,0.0023,0.003,0.0045,0.0096,0.0101,0.0088,0.009,0.0092,0.0093,0,0,0,0,0,0,0,-0.0184,-0.0179,-0.0138,-0.0139,-0.0134,-0.0106,-0.0099,-0.0063,-0.0026,-0.0069,-0.0065,-0.0059,0.0025,0.0041,0.0048,0.0103,0.0088,0.0091,0.0094,0.0095,0.0188,0.0188,0,0,0,0,0,0,-0.0199,-0.0182,-0.014,-0.0136,-0.0157,-0.0105,-0.0098,-0.0093,-0.0027,-0.0017,-0.0059,-0.0057,0.0035,0.0044,0.0052,0.0077,0.0092,0.0096,0.0098,0.0188,0.0188,0.0188,0,0,0,0,0,0,-0.0201,-0.0196,-0.0143,-0.0158,-0.015,-0.0105,-0.01,-0.0092,-0.0077,-0.002,-0.001,-0.0053,0.0035,0.0047,0.0083,0.0082,0.0097,0.0101,0.0188,0.0188,0.0188,0.0126,0,0,0,0,0,0,-0.0203,-0.0197,-0.0202,-0.0159,-0.0149,-0.0129,-0.0101,-0.0091,-0.0074,-0.007,-0.0011,-0.0001,0.0036,0.0077,0.0087,0.0087,0.0104,0.0188,0.0188,0.0188,0.0128,0.0124,0.0121,0,0,0,0,0,-0.0205,-0.0214,-0.0202,-0.0198,-0.0156,-0.0129,-0.0121,-0.0087,-0.0075,-0.0071,-0.003,-0.0003,0.0086,0.008,0.0092,0.0093,0.0188,0.0188,0.0188,0.0129,0.0125,0.0121,0,0,0,0,0,0,-0.024,-0.0208,-0.0195,-0.0194,-0.0167,-0.0121,-0.0117,-0.0093,-0.0058,-0.0055,-0.0001,0.0012,0.0043,0.0078,0.007,0.0122,0.0141,0.0144,0.0093,0.0089,0.0085,0.0072,0.0107,0,0,0,0,0,-0.0251,-0.025,-0.0213,-0.0213,-0.0202,-0.0161,-0.0147,-0.0124,-0.0087,-0.0072,-0.003,0.0015,0.0054,0.0077,0.0115,0.0143,0.0179,0.0153,0.0149,0.0146,0.0143,0.0195,0.0196,0.0189,0.0189,0.0189,0,0,-0.0265,-0.0249,-0.0248,-0.0221,-0.0197,-0.0187,-0.0152,-0.0136,-0.0124,-0.0066,-0.0039,0.0002,0.0058,0.0089,0.0106,0.0118,0.0166,0.0146,0.0142,0.0142,0.0196,0.0196,0.0197,0.0189,0.0189,0.0189,0,0,-0.0293,-0.0278,-0.0286,-0.0267,-0.0239,-0.0212,-0.0211,-0.0168,-0.0146,-0.0117,-0.0071,-0.0032,0.0025,0.0068,0.0097,0.0097,0.0142,0.0108,0.0083,0.0133,0.0134,0.0135,0.0174,0.0179,0.0109,0.0109,0.0109,0,-0.0313,-0.0315,-0.0284,-0.0284,-0.0274,-0.0228,-0.023,-0.02,-0.0151,-0.0132,-0.0118,-0.0027,0.0016,0.0065,0.0065,0.0089,0.012,0.0092,0.0127,0.0129,0.0131,0.0171,0.0178,0.0106,0.0106,0.0107,0.0107,0,-0.0341,-0.0343,-0.0346,-0.0332,-0.0316,-0.0312,-0.0269,-0.0249,-0.022,-0.0184,-0.0136,-0.0072,-0.0017,0.0003,0.0034,0.0073,0.009,0.0112,0.0133,0.0128,0.0171,0.0179,0.0102,0.0103,0.0104,0.0105,0,0,-0.0383,-0.0371,-0.0372,-0.0376,-0.0342,-0.0334,-0.0314,-0.028,-0.0266,-0.0212,-0.0185,-0.0116,-0.0078,-0.0043,0.0006,0.0051,0.009,0.0081,0.0085,0.0111,0.0193,0.0215,0.0226,0.0116,0.0117,0.0118,0.0214,0,-0.0416,-0.0437,-0.0414,-0.0428,-0.0434,-0.0388,-0.0374,-0.0336,-0.0293,-0.0254,-0.018,-0.0136,-0.0095,-0.007,-0.002,0.0067,0.0109,0.0062,0.0202,0.0206,0.022,0.0235,0.0204,0.0288,0.0222,0.0223,0.0224,0,-0.0449,-0.0461,-0.0484,-0.048,-0.0477,-0.0475,-0.0444,-0.0424,-0.0354,-0.0319,-0.0257,-0.0195,-0.0116,-0.0086,0.0055,0.0022,0.0096,0.0162,0.0167,0.0215,0.0243,0.0286,0.0305,0.0238,0.0237,0.0236,0.0235,0,-0.0499,-0.0508,-0.0532,-0.0531,-0.0515,-0.0515,-0.0503,-0.0447,-0.0429,-0.0358,-0.0332,-0.0229,-0.0174,-0.0065,0.007,0.0063,0.0223,0.0235,0.0326,0.0328,0.0344,0.0346,0.0327,0.0327,0.0327,0.0327,0.0326,0,-0.0543,-0.0562,-0.0561,-0.0576,-0.0603,-0.0569,-0.0576,-0.0544,-0.0492,-0.0469,-0.0372,-0.0322,-0.0167,-0.0053,0.0062,0.0222,0.0222,0.0326,0.0358,0.0321,0.032,0.0311,0.0308,0.033,0.033,0.0329,0.0328,0,-0.0589,-0.0589,-0.0621,-0.0624,-0.0629,-0.0648,-0.0637,-0.0634,-0.0577,-0.0542,-0.0521,-0.0385,-0.0231,-0.0071,0.0118,0.0213,0.0362,0.0415,0.0356,0.0379,0.0432,0.0425,0.0526,0.0527,0.0529,0.053,0.0531,0,-0.0615,-0.0636,-0.0666,-0.0692,-0.0698,-0.0717,-0.0727,-0.0686,-0.0672,-0.0574,-0.0556,-0.0404,-0.028,0.0004,0.0202,0.0412,0.0409,0.0492,0.0477,0.0434,0.0455,0.0445,0.0436,0.0473,0.0473,0.0474,0.0474,0,-0.0663,-0.0671,-0.0699,-0.0753,-0.0781,-0.0806,-0.0811,-0.0812,-0.0749,-0.0696,-0.0588,-0.0481,-0.0206,0.0034,0.0297,0.0408,0.0456,0.0506,0.0494,0.0423,0.0391,0.0409,0.0401,0.0477,0.0477,0.0477,0.0477,0.0476,-0.0695,-0.0729,-0.0762,-0.0812,-0.085,-0.0878,-0.0887,-0.0862,-0.0828,-0.072,-0.062,-0.0435,-0.0204,0.0179,0.0365,0.0525,0.0522,0.0556,0.0552,0.0549,0.0521,0.0493,0.0593,0.0593,0.0593,0.0593,0.0594,0,-0.0728,-0.0764,-0.0817,-0.0872,-0.0916,-0.0918,-0.0926,-0.09,-0.0844,-0.072,-0.0588,-0.0337,-0.0066,0.0165,0.0432,0.0593,0.0568,0.0601,0.0544,0.054,0.0537,0.0506,0.0576,0.0576,0.0576,0.0577,0,0,-0.0748,-0.08,-0.0827,-0.0908,-0.0946,-0.0971,-0.0969,-0.0906,-0.0809,-0.0671,-0.0529,-0.0332,-0.0051,0.0137,0.0337,0.047,0.0458,0.0469,0.0466,0.0371,0.0366,0.0492,0.0438,0,0,0,0,0]}],[{"header":{"parameterUnit":"m.s-1","parameterCategory":2,"la1":30.2991,"la2":30.254,"lo1":-89.0895,"lo2":-89.0444,"dy":0.0017,"dx":0.0017,"nx":28,"ny":28,"refTime":"2024-08-31T09:00:00:Z","depth":"4","parameterNumber":2,"parameterNumberName":"U-component_of_CURRENTS"},"data":[0,0,0,0,0,0,0,0,0,0,0,0,0,0,0,0,0,0,0,0,0,0,0,0,0,0,0,0,0,0,0,0,0,0,0,0,0,0,0,0,0,0,0,0,0,0,0,0,0,0,0,0,0,0,0,0,0,0,-0.1364,-0.1365,0,-0.1415,-0.1416,-0.1416,-0.1437,-0.1437,-0.1437,-0.1437,-0.1476,-0.1477,-0.1478,0,0,0,0,0,0,0,0,0,0,0,0,0,-0.1287,-0.1289,-0.1364,-0.1365,-0.1366,-0.1415,-0.1416,-0.1416,-0.1437,-0.1437,-0.1437,-0.1437,-0.1476,-0.1477,-0.1478,0,0,0,0,0,0,0,0,0,0,0,0,0,-0.1326,-0.1289,-0.1364,-0.1383,-0.1385,-0.1415,-0.1416,-0.1417,-0.1437,-0.1437,-0.1437,-0.1437,-0.1475,-0.1477,-0.1478,-0.1488,0,0,-0.1483,-0.1484,0,0,0,0,0,0,0,0,-0.1324,-0.1329,-0.1379,-0.1382,-0.1384,-0.1421,-0.1403,-0.144,-0.1437,-0.1415,-0.1437,-0.1437,-0.1458,-0.1461,-0.1468,-0.149,-0.1492,-0.1483,-0.1484,-0.1485,-0.1485,0,0,0,0,0,0,0,-0.1321,-0.1327,-0.1383,-0.138,-0.1383,-0.139,-0.1395,-0.141,-0.1434,-0.1417,-0.1419,-0.1427,-0.1459,-0.1467,-0.1469,-0.1492,-0.1483,-0.1485,-0.1486,-0.1486,-0.1567,-0.1568,0,0,0,0,0,0,-0.1318,-0.1325,-0.1381,-0.1385,-0.1355,-0.1392,-0.1397,-0.1408,-0.1435,-0.1439,-0.1427,-0.1428,-0.1464,-0.1467,-0.1471,-0.1527,-0.1485,-0.1487,-0.1487,-0.1566,-0.1567,-0.1568,0,0,0,0,0,0,-0.1316,-0.1323,-0.1379,-0.1357,-0.1365,-0.1393,-0.1405,-0.1409,-0.1438,-0.1443,-0.1447,-0.1454,-0.1464,-0.1469,-0.1504,-0.1527,-0.1487,-0.1489,-0.1564,-0.1566,-0.1568,-0.1612,0,0,0,0,0,0,-0.1314,-0.1322,-0.134,-0.1357,-0.1366,-0.1412,-0.1405,-0.141,-0.1442,-0.1444,-0.1467,-0.1469,-0.1464,-0.1502,-0.1506,-0.1529,-0.149,-0.1563,-0.1565,-0.1567,-0.1609,-0.1615,-0.1621,0,0,0,0,0,-0.1311,-0.1332,-0.1341,-0.1348,-0.1386,-0.1413,-0.1419,-0.1437,-0.1444,-0.1462,-0.1479,-0.1469,-0.1519,-0.1505,-0.1509,-0.1532,-0.1562,-0.1564,-0.1567,-0.1607,-0.1614,-0.162,0,0,0,0,0,0,-0.1311,-0.1337,-0.1346,-0.1376,-0.14,-0.1417,-0.1441,-0.1452,-0.148,-0.1489,-0.1488,-0.1493,-0.1531,-0.1528,-0.1513,-0.1562,-0.1537,-0.1541,-0.1566,-0.1573,-0.1579,-0.1571,-0.1491,0,0,0,0,0,-0.1319,-0.1341,-0.1365,-0.1391,-0.1406,-0.1428,-0.1447,-0.1461,-0.1482,-0.1496,-0.1512,-0.1528,-0.1542,-0.1556,-0.1569,-0.1601,-0.1584,-0.1617,-0.1623,-0.1628,-0.1624,-0.1621,-0.1626,-0.1577,-0.1577,-0.1577,0,0,-0.1328,-0.1345,-0.1359,-0.1393,-0.1414,-0.144,-0.144,-0.1476,-0.1501,-0.1495,-0.1542,-0.1552,-0.1556,-0.1588,-0.1605,-0.1592,-0.1635,-0.1631,-0.1635,-0.1629,-0.1624,-0.1629,-0.1633,-0.1579,-0.1579,-0.1578,0,0,-0.1344,-0.1371,-0.1391,-0.1415,-0.1452,-0.1467,-0.1482,-0.1516,-0.1537,-0.1579,-0.1579,-0.1603,-0.1635,-0.1638,-0.1641,-0.1687,-0.1666,-0.1698,-0.172,-0.1718,-0.1721,-0.1724,-0.1715,-0.1716,-0.1699,-0.17,-0.17,0,-0.1353,-0.138,-0.1403,-0.1428,-0.1452,-0.1481,-0.1509,-0.1535,-0.1577,-0.1595,-0.1602,-0.1646,-0.1654,-0.1677,-0.1694,-0.1699,-0.1692,-0.1693,-0.1724,-0.1726,-0.1728,-0.1718,-0.1719,-0.1702,-0.1702,-0.1701,-0.1701,0,-0.1373,-0.1407,-0.1424,-0.1462,-0.1492,-0.1525,-0.1559,-0.1596,-0.1626,-0.1644,-0.1689,-0.1701,-0.1721,-0.1733,-0.1729,-0.1752,-0.1741,-0.1731,-0.1703,-0.1736,-0.1723,-0.1724,-0.1706,-0.1705,-0.1704,-0.1703,0,0,-0.136,-0.1424,-0.1433,-0.1457,-0.1515,-0.1537,-0.1588,-0.1631,-0.1659,-0.1703,-0.1733,-0.1764,-0.1771,-0.1775,-0.1777,-0.1779,-0.1793,-0.1766,-0.1765,-0.1751,-0.1785,-0.1668,-0.1657,-0.179,-0.179,-0.179,-0.1772,0,-0.1369,-0.1416,-0.145,-0.1503,-0.1529,-0.1577,-0.1618,-0.1662,-0.17,-0.1738,-0.1757,-0.1788,-0.1787,-0.1801,-0.1805,-0.1797,-0.1796,-0.1798,-0.176,-0.1759,-0.1646,-0.1654,-0.1791,-0.1772,-0.1772,-0.1772,-0.1772,0,-0.1367,-0.1403,-0.1455,-0.152,-0.1537,-0.1577,-0.1643,-0.1682,-0.1738,-0.1767,-0.1799,-0.1814,-0.1835,-0.1826,-0.1824,-0.1828,-0.181,-0.1799,-0.1798,-0.1669,-0.1642,-0.1732,-0.1772,-0.1772,-0.1772,-0.1772,-0.1772,0,-0.1328,-0.14,-0.1442,-0.1466,-0.1547,-0.1585,-0.1629,-0.1693,-0.1724,-0.1784,-0.1807,-0.1836,-0.185,-0.1841,-0.1822,-0.1829,-0.1805,-0.1807,-0.1683,-0.1675,-0.1768,-0.1765,-0.1794,-0.1794,-0.1795,-0.1795,-0.1795,0,-0.1306,-0.1343,-0.1432,-0.1455,-0.1505,-0.157,-0.1624,-0.1671,-0.1734,-0.1754,-0.1815,-0.1821,-0.1855,-0.1846,-0.1827,-0.1745,-0.1806,-0.1678,-0.1657,-0.1789,-0.1788,-0.1768,-0.1765,-0.1794,-0.1794,-0.1794,-0.1794,0,-0.1251,-0.1313,-0.1363,-0.1457,-0.1488,-0.1522,-0.1612,-0.1636,-0.1715,-0.1741,-0.1759,-0.1815,-0.1797,-0.1807,-0.1787,-0.173,-0.1678,-0.1634,-0.177,-0.1759,-0.1554,-0.1554,-0.1495,-0.1491,-0.1487,-0.1484,-0.1481,0,-0.1223,-0.1245,-0.1347,-0.1371,-0.1418,-0.1483,-0.1514,-0.1609,-0.1628,-0.171,-0.1701,-0.1729,-0.1744,-0.1621,-0.1651,-0.1597,-0.1578,-0.1547,-0.1552,-0.1534,-0.1521,-0.1527,-0.1532,-0.1475,-0.1475,-0.1474,-0.1473,0,-0.1163,-0.1211,-0.1248,-0.13,-0.1344,-0.1384,-0.144,-0.1447,-0.1535,-0.1622,-0.1591,-0.1575,-0.1552,-0.1532,-0.1497,-0.1462,-0.1566,-0.1508,-0.1516,-0.152,-0.151,-0.1501,-0.1511,-0.146,-0.1461,-0.1463,-0.1463,0,-0.1109,-0.1117,-0.1169,-0.12,-0.1252,-0.1261,-0.1311,-0.1325,-0.1361,-0.1457,-0.1437,-0.147,-0.1526,-0.1459,-0.1426,-0.1382,-0.1365,-0.1324,-0.1342,-0.1356,-0.1318,-0.1285,-0.1137,0,0,0,0,0,-0.1046,-0.1038,-0.106,-0.1086,-0.1134,-0.1163,-0.1241,-0.1293,-0.1383,-0.1318,-0.1376,-0.1345,-0.1303,-0.1327,-0.1249,-0.1365,-0.1373,-0.127,-0.1336,-0.1388,-0.1403,-0.137,0,0,0,0,0,0,-0.0999,-0.1017,-0.102,-0.0982,-0.0975,-0.1013,-0.1058,-0.1123,-0.1103,-0.1199,-0.1181,-0.1253,-0.1232,-0.1313,-0.1214,-0.122,-0.1233,-0.1299,-0.1295,-0.1379,-0.1393,-0.1405,-0.1376,0,0,0,0,0]},{"header":{"parameterUnit":"m.s-1","parameterCategory":2,"la1":30.2991,"la2":30.254,"lo1":-89.0895,"lo2":-89.0444,"dy":0.0017,"dx":0.0017,"nx":28,"ny":28,"refTime":"2024-08-31T09:00:00:Z","depth":"4","parameterNumber":3,"parameterNumberName":"V-component_of_CURRENTS"},"data":[0,0,0,0,0,0,0,0,0,0,0,0,0,0,0,0,0,0,0,0,0,0,0,0,0,0,0,0,0,0,0,0,0,0,0,0,0,0,0,0,0,0,0,0,0,0,0,0,0,0,0,0,0,0,0,0,0,0,-0.0107,-0.0106,0,-0.0055,-0.0054,-0.0054,-0.0016,-0.0016,-0.0015,-0.0015,0.0069,0.0071,0.0073,0,0,0,0,0,0,0,0,0,0,0,0,0,-0.0136,-0.0136,-0.0107,-0.0106,-0.0106,-0.0055,-0.0054,-0.0054,-0.0016,-0.0016,-0.0015,-0.0015,0.0068,0.0071,0.0073,0,0,0,0,0,0,0,0,0,0,0,0,0,-0.0107,-0.0136,-0.0107,-0.0082,-0.0079,-0.0055,-0.0054,-0.0053,-0.0016,-0.0016,-0.0015,-0.0015,0.0067,0.007,0.0073,0.0086,0,0,0.0083,0.0084,0,0,0,0,0,0,0,0,-0.0108,-0.0105,-0.0086,-0.0083,-0.008,-0.0043,-0.0034,-0.0006,-0.0016,-0.0038,-0.0015,-0.0015,0.0033,0.0039,0.005,0.009,0.0093,0.0083,0.0085,0.0086,0.0087,0,0,0,0,0,0,0,-0.011,-0.0107,-0.0085,-0.0086,-0.0082,-0.0061,-0.0056,-0.0028,-0.0003,-0.0036,-0.0034,-0.003,0.0035,0.0047,0.0052,0.0095,0.0083,0.0086,0.0087,0.0089,0.0167,0.0167,0,0,0,0,0,0,-0.0122,-0.0109,-0.0087,-0.0084,-0.0095,-0.0061,-0.0056,-0.0054,-0.0004,0.0003,-0.0031,-0.0029,0.0041,0.0048,0.0055,0.0081,0.0086,0.0089,0.0091,0.0167,0.0167,0.0168,0,0,0,0,0,0,-0.0123,-0.012,-0.0089,-0.0096,-0.0091,-0.0061,-0.0059,-0.0053,-0.0043,-0.0,0.0008,-0.0027,0.0042,0.0051,0.008,0.0084,0.009,0.0093,0.0167,0.0167,0.0167,0.0127,0,0,0,0,0,0,-0.0124,-0.0121,-0.0127,-0.0097,-0.0091,-0.0079,-0.0059,-0.0053,-0.0042,-0.0039,0.0005,0.0014,0.0043,0.0075,0.0083,0.0088,0.0095,0.0166,0.0167,0.0167,0.0128,0.0126,0.0124,0,0,0,0,0,-0.0125,-0.0134,-0.0127,-0.0125,-0.0099,-0.008,-0.0075,-0.0051,-0.0043,-0.004,-0.0008,0.0012,0.0084,0.0078,0.0087,0.0093,0.0166,0.0167,0.0167,0.0128,0.0126,0.0124,0,0,0,0,0,0,-0.015,-0.013,-0.0122,-0.0125,-0.0107,-0.0074,-0.0073,-0.0056,-0.003,-0.0027,0.0014,0.0025,0.0051,0.0078,0.007,0.0118,0.0129,0.0132,0.0097,0.0095,0.0093,0.008,0.0098,0,0,0,0,0,-0.0159,-0.0162,-0.0136,-0.014,-0.0133,-0.0104,-0.0095,-0.0079,-0.0051,-0.004,-0.0008,0.0028,0.0061,0.0081,0.0111,0.0136,0.016,0.0147,0.0145,0.0143,0.014,0.0182,0.0183,0.0169,0.0169,0.0169,0,0,-0.017,-0.0161,-0.0162,-0.0146,-0.013,-0.0122,-0.0098,-0.0088,-0.0077,-0.0035,-0.0012,0.002,0.0065,0.0094,0.0109,0.0117,0.0159,0.0144,0.0142,0.014,0.0182,0.0184,0.0185,0.017,0.017,0.017,0,0,-0.0191,-0.0185,-0.0192,-0.0179,-0.0161,-0.0141,-0.0141,-0.011,-0.0093,-0.007,-0.0034,-0.0,0.0045,0.0083,0.0107,0.0114,0.0144,0.0123,0.0107,0.0148,0.0149,0.015,0.0175,0.0179,0.0126,0.0126,0.0126,0,-0.0207,-0.021,-0.0191,-0.019,-0.0184,-0.0153,-0.0154,-0.0131,-0.0093,-0.0079,-0.0069,0.0005,0.0042,0.0087,0.009,0.0109,0.013,0.011,0.0144,0.0146,0.0148,0.0173,0.0178,0.0124,0.0124,0.0124,0.0124,0,-0.0226,-0.023,-0.0233,-0.0223,-0.0212,-0.021,-0.0177,-0.0163,-0.0142,-0.0114,-0.0074,-0.0021,0.0023,0.0043,0.0069,0.0106,0.0114,0.0132,0.0146,0.0147,0.0173,0.0179,0.0121,0.0122,0.0122,0.0123,0,0,-0.0258,-0.0249,-0.0252,-0.0256,-0.0231,-0.0227,-0.0209,-0.0183,-0.0174,-0.0129,-0.011,-0.0045,-0.0018,0.0011,0.0053,0.0093,0.0125,0.0114,0.0117,0.0131,0.0201,0.0186,0.0191,0.0148,0.0149,0.0149,0.021,0,-0.028,-0.0296,-0.028,-0.0291,-0.0295,-0.0264,-0.0252,-0.0223,-0.0192,-0.0165,-0.0101,-0.0068,-0.0029,-0.0011,0.0036,0.0104,0.014,0.0106,0.0205,0.0208,0.0189,0.0198,0.0153,0.0214,0.0216,0.0217,0.0218,0,-0.0302,-0.0312,-0.033,-0.0331,-0.033,-0.0331,-0.0313,-0.0297,-0.0245,-0.0219,-0.0169,-0.0121,-0.0053,-0.0026,0.009,0.0065,0.0125,0.0178,0.0182,0.0186,0.0204,0.0218,0.0229,0.0228,0.0227,0.0226,0.0225,0,-0.0338,-0.0347,-0.0368,-0.0367,-0.0358,-0.0363,-0.0358,-0.0319,-0.0308,-0.0256,-0.0241,-0.0153,-0.0112,-0.0021,0.009,0.0089,0.0212,0.0227,0.0271,0.027,0.0282,0.0281,0.0303,0.0302,0.0302,0.0302,0.0302,0,-0.0364,-0.0383,-0.0392,-0.0403,-0.0432,-0.0409,-0.0424,-0.0402,-0.0368,-0.0354,-0.0277,-0.0242,-0.0109,-0.002,0.0077,0.019,0.0205,0.0266,0.0287,0.0263,0.0258,0.0286,0.0283,0.0304,0.0304,0.0303,0.0303,0,-0.0394,-0.0398,-0.0429,-0.0441,-0.0451,-0.0473,-0.048,-0.0483,-0.0445,-0.0424,-0.041,-0.0305,-0.0187,-0.0054,0.0099,0.0167,0.028,0.0315,0.0269,0.0286,0.0311,0.0306,0.0364,0.0364,0.0364,0.0364,0.0364,0,-0.0408,-0.0427,-0.0467,-0.0494,-0.0505,-0.0534,-0.0551,-0.0528,-0.0521,-0.0457,-0.0444,-0.0335,-0.0251,-0.0045,0.0089,0.0266,0.0292,0.0337,0.0333,0.0304,0.0319,0.0314,0.0308,0.0364,0.0364,0.0364,0.0364,0,-0.0436,-0.0454,-0.048,-0.0538,-0.0573,-0.0605,-0.0622,-0.0622,-0.0581,-0.0553,-0.0461,-0.0346,-0.0214,-0.0049,0.0087,0.0216,0.0301,0.0338,0.0338,0.0336,0.0305,0.0319,0.0314,0.0364,0.0364,0.0364,0.0364,0,-0.046,-0.0489,-0.0526,-0.0574,-0.0625,-0.0654,-0.066,-0.0636,-0.062,-0.0536,-0.0508,-0.0353,-0.026,-0.0076,0.0053,0.0174,0.0203,0.0232,0.0239,0.024,0.0187,0.0129,0.0152,0,0,0,0,0,-0.0477,-0.0509,-0.0557,-0.0609,-0.0658,-0.0681,-0.0694,-0.0684,-0.0646,-0.0587,-0.0541,-0.0411,-0.0208,-0.0117,0.0004,0.0042,0.0212,0.0183,0.0245,0.0365,0.0365,0.0322,0,0,0,0,0,0,-0.0491,-0.0537,-0.0558,-0.0624,-0.0662,-0.0707,-0.0716,-0.069,-0.0642,-0.0588,-0.0473,-0.0403,-0.0201,-0.0278,-0.0001,0.0036,0.0086,0.0285,0.0287,0.0365,0.0365,0.0365,0.0321,0,0,0,0,0]}]]